Hourly Data Report for October 15, 2015

All times are specified in Local Standard Time (LST). Add 1 hour to adjust for Daylight Saving Time where and when it is observed.

KUGLUKTUK A
NUNAVUT

67°49'00.000" N
115°08'38.000" W
22.60 m
2300903
71938
YCO

Download Data

Hourly Data (October 2015)
Hourly Data Report for October 15, 2015
Temp Definition
°C
Dew Point Temp Definition
°C
Rel Hum Definition
%
Wind Dir Definition
10's deg

Wind Spd Definition
km/h
Visibility Definition
km
Stn Press Definition
kPa
Hmdx Definition


Wind Chill Definition


Weather Definition


TIME
00:00 Legend Double Dagger -10.9 -12.4 89 25 16 24.1 101.83   -18 LegendNANA
01:00 Legend Double Dagger -10.6 -12.8 84 26 22 24.1 101.84   -19 LegendNANA
02:00 Legend Double Dagger -10.4 -12.5 85 25 19 24.1 101.87   -18 Mostly Cloudy
03:00 Legend Double Dagger -8.6 -10.5 86 25 13 24.1 101.90   -15 LegendNANA
04:00 Legend Double Dagger -8.5 -10.3 87 20 9 24.1 101.92   -13 Snow
05:00 Legend Double Dagger -7.7 -9.5 87 22 12 24.1 101.92   -13 Snow
06:00 Legend Double Dagger -7.0 -9.0 86 21 10 19.3 101.90   -12 Snow
07:00 Legend Double Dagger -6.4 -8.7 84 20 9 24.1 101.87   -11 Snow
08:00 Legend Double Dagger -5.4 -7.4 86 23 11 24.1 101.83   -10 Snow
09:00 Legend Double Dagger -4.5 -6.5 86 23 15 24.1 101.81   -10 LegendNANA
10:00 Legend Double Dagger -3.3 -5.9 82 25 21 24.1 101.83   -10 LegendNANA
11:00 Legend Double Dagger -2.8 -5.1 84 26 18 16.1 101.86   -8 Snow
12:00 Legend Double Dagger -2.4 -5.1 82 27 22 24.1 101.88   -9 Snow Grains
13:00 Legend Double Dagger -1.2 -4.7 77 27 23 24.1 101.89   -7 LegendNANA
14:00 Legend Double Dagger -0.6 -4.9 73 29 19 24.1 101.92   -6 Cloudy
15:00 Legend Double Dagger -0.5 -5.1 71 28 16 24.1 101.95   -5 LegendNANA
16:00 Legend Double Dagger -0.8 -5.1 73 26 13 24.1 101.96   -5 LegendNANA
17:00 Legend Double Dagger -1.2 -4.7 77 26 16 24.1 101.95   -6 Mostly Cloudy
18:00 Legend Double Dagger -1.9 -5.2 78 25 19 24.1 101.96   -7 LegendNANA
19:00 Legend Double Dagger -2.3 -5.3 80 24 17 24.1 101.97   -8 LegendNANA
20:00 Legend Double Dagger -3.1 -5.3 85 23 18 24.1 101.97   -9 Cloudy
21:00 Legend Double Dagger -2.8 -5.1 84 23 16 24.1 101.95   -8 LegendNANA
22:00 Legend Double Dagger -2.3 -5.1 81 26 23 24.1 101.94   -9 Snow
23:00 Legend Double Dagger -2.2 -5.0 81 26 21 24.1 101.95   -8 Cloudy

Notes on Data Quality.

Legend

  • E = Estimated
  • M = Missing
  • NA = Not Available
  • ‡ = Partner data that is not subject to review by the National Climate Archives
Date modified: